GFSMW_prec_radar_096.txt.gz
Reflectivity
-20 -20 -20 -20 -17 0 -2 -3 -20 -3 -6 -0 26 35 34 32 26 23 35 31 33 26 9 22 0 -20 -20 -20 -20 -20 -20 -20 -20 -20 -20 -20 -20 -20 -20 -20 -20 -20 -20
-20 -20 -20 -20 -4 2 2 -16 -16 -1 -14 -4 23 31 31 31 29 31 34 31 25 22 20 7 10 -13 -16 -20 -20 -20 -20 -20 -20 15 -20 -20 -20 -20 -20 -20 -20 -20 -20
-20 -20 -20 -20 2 -6 -7 -3 -8 -11 18 1 10 26 28 33 30 29 29 29 16 14 10 13 -20 -1 -7 -20 -20 -20 -20 -20 -20 -20 -20 -20 -20 -20 -20 -20 -20 -20 -20
-20 -20 -20 -20 -8 -20 3 3 -15 -3 15 -14 18 14 28 32 28 21 28 29 28 20 3 -9 -20 -14 -20 -20 -5 -20 -20 -20 -20 -20 -13 -5 -20 -20 -20 -20 -20 -20 -20
-20 -20 -20 -20 -20 -15 -1 -19 2 -10 -20 -20 -12 4 -10 8 27 20 -10 3 -6 15 10 17 -11 -20 -19 -8 -1 -15 -20 -20 -20 -20 -11 -2 15 -20 -20 -15 -13 -20 -20
-20 -20 -20 -20 -20 -12 -1 -3 -3 1 -20 -20 -18 -4 -1 -4 7 22 16 -19 6 14 10 25 16 25 23 3 -20 -20 -20 -20 -20 -20 -18 -8 4 5 -20 -6 15 41 24
-20 -20 -20 -20 -20 -20 -10 -0 -3 -11 -18 -20 -20 -20 -20 -19 -16 -13 13 1 -20 16 20 23 4 -11 -20 -20 -20 -20 -20 -20 -20 -20 -20 -12 15 18 1 9 3 33 31
-20 -20 -20 -20 -20 -20 -20 -5 -0 -12 -20 -20 -20 -20 -20 -20 -20 -13 -20 -20 -20 -20 -20 -20 -20 -20 -20 -20 10 25 -15 -20 -20 -20 -20 -20 -19 -19 -10 19 24 28 31
-20 -20 -20 -20 -20 -20 -20 -20 -20 -6 -19 -20 -20 -20 -20 -20 -20 -20 -20 -20 -20 -20 -20 -20 -20 -20 -20 14 14 -16 -13 -1 -15 -17 -3 -20 -20 -20 -12 -5 12 35 13
-20 -20 -20 -20 -20 -20 -20 -20 -20 -20 -16 -13 -20 -20 -20 -20 -20 -20 -20 -20 -20 -20 -20 -20 -20 -20 -20 -20 -20 -20 -20 10 3 -6 -8 -3 -17 -18 -6 -8 -20 14 31
-20 -20 -20 -20 -20 -20 -20 -20 -20 -20 -20 -20 -20 -20 -20 -20 -20 -20 -20 -20 -20 -20 -20 -20 -20 -20 -20 -20 -3 -20 -20 -20 -20 -20 -7 -18 0 6 24 28 28 24 24
-20 -20 -20 -20 -20 -20 -20 -20 -16 -20 -20 -20 -20 -20 -20 -20 -20 -20 -20 -20 -20 -20 -20 -20 -20 -20 -20 -20 -20 -20 -20 -20 -14 9 20 7 17 18 32 26 27 30 30
-20 -20 -20 -20 -20 -20 -20 -20 -20 -20 -20 -20 -20 -20 -20 -20 -20 -20 -20 -20 -20 -20 -20 -20 -20 -20 -20 -20 -20 -20 -20 7 7 0 5 -20 -1 -19 17 26 25 27 26
-20 -20 -20 -20 -20 -20 -20 -20 -20 -20 -20 -20 -20 -20 -20 -20 -20 -20 -20 -20 -20 -20 -20 -20 -20 -20 -20 -20 -20 1 -1 6 -7 4 -20 -13 24 -20 -10 24 21 21 17
-20 -20 -20 -20 -20 -20 -20 -20 -20 -20 -20 -20 -20 -20 -20 -20 -20 -20 -20 -20 -20 -20 -20 -20 -20 -20 -20 -20 -14 -16 3 14 -17 -3 20 5 22 20 18 10 15 18 20
-20 -20 -20 -20 -20 -20 -20 -20 -20 -20 -20 -20 -20 -20 -20 -20 -20 -20 -20 -20 -20 -20 -20 -20 -20 -20 -9 18 11 17 5 16 15 10 13 1 25 24 23 19 20 7 27
-20 -20 -20 -20 -20 -20 10 -18 -20 -20 -20 -20 -20 -20 -20 -20 -20 -20 -20 -20 -10 -4 -2 -2 7 12 3 21 17 15 12 4 -8 -1 3 11 13 22 -1 17 22 22 20
-20 -20 7 2 -20 -20 -20 -13 -20 -20 -20 -20 -20 -20 -20 -20 -20 -20 -5 5 15 1 -20 2 7 12 16 15 17 7 1 0 -8 -20 -12 -13 -6 9 -5 0 14 13 13
-20 -20 -20 -20 -20 -20 -20 -20 -20 -20 -20 -20 -17 -10 -4 -17 -19 -20 14 15 22 15 13 15 12 19 4 15 12 9 -19 -20 -20 -19 -15 -7 -9 20 17 7 2 9 14
-20 -20 -20 -20 -20 -20 -20 15 -20 -20 -20 -20 -20 -20 -20 -20 -1 14 23 22 10 8 17 15 9 18 -12 11 7 3 -20 -20 -20 -15 2 13 3 11 9 -2 2 9 9
-18 -20 -20 -20 -20 -20 -20 -13 -16 -20 -20 -20 -20 -20 -20 2 8 9 5 8 1 -8 -6 1 -1 8 13 -7 -18 -18 -20 -18 -6 1 4 4 14 5 6 13 13 10 6
-20 -20 -20 -20 -20 -20 -20 11 -20 -20 -20 -20 -12 -18 -20 -20 -17 -20 -18 -4 -11 -7 -1 -7 -17 -20 -20 2 0 -3 -7 -12 -7 5 6 1 -10 -15 -5 -10 -20 -20 -16
-20 -16 -20 -20 -20 -20 -9 -10 -20 -20 -20 -20 -3 -14 -20 -20 -20 -20 -20 -20 -20 -20 -20 -18 -5 -3 1 1 11 -3 -16 -20 -9 -17 -20 -20 -20 -20 -20 -20 -20 -20 8
-20 -20 -7 4 8 -12 -20 -20 -20 -20 -20 1 3 -14 -20 -20 -20 -20 -20 -20 -20 -20 -20 -20 -19 -11 -5 0 0 -9 -1 -18 -11 -17 -3 -20 -20 -20 -16 -1 12 8 5
14 10 -20 -20 -17 -18 -19 -20 -20 -18 -19 -18 -16 -20 -20 -20 -20 -20 -20 -20 -16 -10 2 -6 -6 1 1 5 -3 -5 -5 -6 -11 -13 -3 -2 -3 -2 2 4 10 9 4
33 12 -5 -11 1 -3 -11 1 5 -17 -20 -20 -16 3 -20 -20 -20 -20 -13 -18 -3 -17 -20 -20 -6 -3 -13 -20 -20 -20 -20 -20 -20 -4 -2 3 5 5 4 0 7 6 9

GFSMW_prec_radar_102.txt.gz
Reflectivity
-20 -20 -20 -20 -20 -20 -20 -20 -14 -14 -20 -20 -0 -2 -20 -19 22 17 9 -8 20 30 25 16 -15 27 12 19 -16 -20 -20 -20 -20 -20 -20 -20 -20 -20 -20 -20 -20 -20 -20
-20 -20 -20 -20 -20 -20 -20 -20 0 -20 -20 -18 -13 -20 -20 -20 -11 27 9 9 15 18 25 23 -0 6 -18 24 13 -16 -4 -20 -13 -18 -20 -20 -20 -20 -20 -20 -20 -20 -20
-20 -20 -20 -20 -20 -20 -20 -20 -20 -20 -20 -12 -10 -20 4 10 20 23 33 -9 1 12 19 21 16 14 -1 5 9 -17 6 -5 13 -18 -20 -20 -20 -20 -20 -20 -20 -20 -20
-20 -20 -20 -20 -20 -20 -20 -20 -1 -20 -2 -20 -4 -11 6 13 28 18 21 30 19 23 23 18 17 17 24 22 7 9 15 20 17 -20 -20 -20 -20 -20 -20 -20 -20 -20 -20
-20 -20 -20 -20 -20 -20 -20 10 -7 2 -20 -20 -20 17 15 18 28 34 37 22 32 26 15 21 16 16 23 19 25 29 20 6 18 7 -20 -20 -20 -20 -20 -20 -20 -20 -20
-20 -20 -20 -20 -20 -20 -20 -12 10 8 -20 -20 -20 -20 3 11 14 28 34 36 26 28 27 19 26 30 32 31 30 25 9 -1 -9 -20 -20 -20 -20 -20 -20 -20 -20 -20 -20
-20 -20 -20 -20 -20 -20 -20 -20 2 6 -16 -20 -15 -20 -20 -8 -2 4 22 28 32 29 29 31 29 26 26 30 24 19 13 -20 -20 -4 -3 -20 -20 -20 -20 -20 -20 -20 -20
-20 -20 -20 -20 -20 -20 -20 -20 10 12 4 -20 -20 -20 -20 -20 -17 -5 -20 -1 25 26 27 25 25 25 22 24 19 32 27 -20 -20 -20 -15 9 13 -20 -20 -20 -20 -20 -20
-20 -20 -20 -20 -20 -20 -20 -20 -14 7 7 -20 -20 -20 -20 -20 -20 -20 -12 -19 -8 1 10 -5 14 12 18 20 18 6 14 -20 -20 -20 -18 -20 -20 25 -16 -20 -20 -20 -20
-20 -20 -20 -20 -20 -20 -20 -20 -20 -20 -2 -1 -20 -20 -20 -20 -20 -20 -20 -20 -20 -5 4 6 14 5 -4 5 -5 -7 -16 -12 -20 -20 -20 -7 -20 -20 14 -10 -6 -20 -20
-20 -20 -20 -20 -20 -20 -20 -20 -20 -20 -20 -20 -14 -20 -20 -20 -20 -20 -20 -20 -20 -20 -20 -20 -20 -17 -20 -20 -20 -20 -20 -20 -20 -20 -20 -20 -20 14 14 16 23 1 -19
-19 -20 -20 -20 -20 -20 -20 -20 -20 -20 -20 -20 -20 -20 -20 -20 -20 -20 -20 -20 -20 -20 -20 -20 -20 -20 -20 -20 -20 -20 -20 -20 -20 -20 6 -20 11 12 -11 16 18 18 15
-20 -20 -20 -20 -20 -20 -20 -20 -20 -20 -20 -20 -20 -20 -20 -20 -20 -20 -20 -19 -5 3 -15 -8 -17 -20 -16 -20 -20 -20 -20 -20 -16 4 11 20 23 19 18 18 18 17 32
-19 -20 -20 -20 -20 -20 -20 -20 -20 -20 -20 -20 -20 -20 -20 -20 -20 -20 -20 -20 -20 -20 -20 -20 -17 -20 -11 -10 -9 3 5 8 17 21 17 -20 -6 -3 -20 -17 32 26 38
13 0 -20 -20 -20 -20 -20 -20 -20 -20 -20 -20 -20 -20 -20 -20 -20 -20 -20 -20 -20 -20 -20 -8 2 7 12 -13 -20 10 -11 -20 -12 -20 -20 -8 23 16 32 15 33 24 -12
-20 23 13 -20 -20 -20 -20 -20 -20 -20 -20 -20 -20 -20 -20 -20 -20 -20 -20 -20 -6 -1 5 -1 -20 -20 -20 10 13 15 -20 -20 -20 -20 8 6 23 28 17 24 -5 25 32
-0 -15 9 18 -20 -20 -20 -20 -20 -20 -20 -20 -20 -20 -20 -20 -20 -20 -20 2 -12 -20 -20 6 16 16 10 17 12 14 -13 0 21 24 30 30 23 22 -8 9 14 1 19
-11 -8 -20 19 9 -6 -20 -20 -20 -20 -20 -20 -20 -20 -20 -20 -20 -20 -20 -3 -1 12 9 9 4 0 2 14 13 22 17 16 29 26 28 10 25 15 18 7 16 -7 -20
2 -20 -20 -20 -20 -8 -20 -20 -20 -20 -20 -20 -20 -20 -20 -20 -20 -20 -20 -10 -7 15 6 5 14 20 21 22 18 14 2 2 17 28 16 20 17 9 18 7 -12 -20 -20
-20 -20 -20 -20 -20 -20 -20 -20 -20 -20 -20 -20 -20 -20 -20 -20 -20 -20 -0 12 12 5 12 22 24 24 18 22 17 18 1 23 32 28 16 16 17 12 1 -20 -20 -20 -20
-20 -20 -20 -20 -20 -20 -20 -20 -20 1 11 1 -20 -20 -20 -16 18 24 17 22 21 19 19 15 18 16 11 20 24 25 18 1 -14 -10 -13 -20 -19 -20 -20 -20 -20 -20 -20
-20 -20 -20 -20 -20 -20 -20 -20 3 -20 -16 10 -20 -20 1 9 13 23 18 28 25 20 20 19 12 16 21 21 13 0 7 -3 -20 -20 -20 -20 -16 -20 -20 -20 -20 -18 -20
-7 -20 -20 -20 -20 -20 -20 -20 -20 -20 -7 20 26 0 -14 -6 -3 25 22 22 24 18 16 13 11 5 6 -10 -18 -20 -20 -20 -20 -20 -20 -20 -20 -3 -20 -20 -10 -20 -20
6 -8 -20 -20 -20 -17 -6 -20 -2 -1 14 19 -3 -1 11 18 11 12 17 12 14 8 -5 -9 3 20 -20 -20 -20 -20 -20 -20 -20 -7 -20 -20 -20 -20 -20 -20 -20 -20 -20
11 -12 -10 -18 -18 -5 5 2 -1 11 7 -5 11 21 18 15 25 6 11 2 -13 -8 9 12 16 -10 -5 -16 -20 -20 -20 -20 -20 -20 -20 -20 -20 -20 -20 -20 -20 -20 -20
1 3 8 16 15 16 19 22 24 25 14 16 18 15 21 8 8 -11 14 10 17 21 22 17 -3 -9 6 -2 -20 -20 -20 -20 -20 -20 -20 -20 -20 -20 -20 -20 -20 -20 -20

GFSMW_prec_radar_105.txt.gz
Reflectivity
-20 -20 -20 -20 -20 -20 -20 -20 -20 -8 -20 -20 -20 -20 -14 15 -0 -20 -20 12 -15 -20 14 23 -16 -18 -4 -20 -20 -20 -20 -20 -20 -20 -20 -20 -20 -20 -20 -20 -20 -20 -20
-20 -20 -20 -20 -20 -20 -20 -20 -19 -3 -20 -20 -20 -20 -20 -20 16 6 -11 20 -20 -18 12 28 -12 -7 20 16 1 -20 -20 -20 -20 -20 -17 -20 -20 -20 -20 -20 -20 -20 -20
-20 -20 -20 -20 -20 -20 -20 -20 -20 -20 -20 -1 -20 -20 -20 -20 1 26 17 -1 7 7 12 22 -1 6 18 5 3 9 10 -20 -20 -20 8 -12 1 -20 -20 -20 -20 -20 -20
-20 -20 -20 -20 -20 -20 -20 -20 -5 -20 -20 7 -7 -15 -7 -20 -20 9 32 13 26 16 23 19 10 1 27 29 21 25 -1 -20 -19 -7 10 24 4 -20 -20 -20 -20 -20 -20
-20 -20 -20 -20 -20 -20 -20 -20 -12 -0 -19 -5 -18 -20 -20 -20 5 -16 25 36 22 28 14 18 20 19 25 29 29 26 19 14 17 29 15 5 -15 -20 -20 -20 -20 -20 -20
-20 -20 -20 -20 -20 -20 -20 -20 0 -20 -20 -5 10 -16 -20 -20 -16 21 3 35 25 24 26 19 17 26 25 14 19 21 14 27 27 25 13 4 -20 -19 -20 -20 -20 -20 -20
-20 -20 -20 -20 -20 -20 -20 -20 -20 -20 -20 -10 -4 -20 -20 -20 -20 6 19 29 31 33 26 27 29 28 24 24 31 23 27 28 21 24 -20 -19 -20 -16 -20 -20 -20 -20 -20
-7 -20 -20 -20 -20 -20 -20 -20 -20 -20 -20 -20 7 -20 -20 -20 -20 -0 9 20 25 29 37 33 30 30 33 27 23 19 21 18 22 20 -15 -16 -3 12 15 -6 -20 -20 -20
-19 -20 -20 -20 -20 -20 -20 -20 -20 -20 -20 -20 -5 -20 -20 -20 -20 -20 -11 23 -1 21 25 28 31 31 24 23 25 22 2 4 17 13 21 -15 -19 -20 -20 -19 1 12 -7
-20 -12 -20 -20 -20 -20 -20 -20 -20 -20 -20 -20 -9 -20 -20 -20 -20 -20 -18 -19 -20 -19 -1 15 26 21 18 19 13 9 20 8 17 13 -5 -20 -20 -20 -20 -20 -20 -20 -20
-17 -16 -20 -20 -20 -20 -20 -20 -20 -20 -20 -20 -20 -20 -20 -20 -20 -20 -20 -20 -19 -20 -20 -20 -19 3 -16 -18 -5 -13 -13 -20 -16 13 10 -20 -20 -20 -20 -20 -20 -20 -20
22 -1 -17 -20 -20 -20 -20 -20 -20 -20 -20 -20 -20 -20 -20 -20 -20 -20 -20 -20 -20 -20 -20 -20 -20 -20 -20 -20 -20 -20 -20 -20 -20 -20 -20 -20 -10 -20 -20 -20 -20 -20 5
-0 29 -13 -20 -20 -20 -20 -20 -20 -20 -20 -20 -20 -20 -20 -20 -20 -20 -20 -20 -20 -20 -20 -20 -20 -20 -20 -20 -20 -20 -20 -20 -20 -14 3 -20 -20 -20 -19 -5 -20 -14 18
28 24 9 -20 -20 -20 -20 -20 -20 -20 -20 -20 -20 -20 -20 -20 -20 -20 -20 -20 -20 -20 -20 -20 -20 -4 -20 -20 -20 -20 -19 -15 -13 -5 -13 -20 -20 -20 -20 -19 -18 19 18
-6 -19 19 25 -20 -20 -20 -20 -20 -20 -20 -20 -20 -20 -20 -20 -20 -20 -20 -20 -20 -20 -20 -20 -20 -20 -20 -19 -20 -20 5 15 -5 -18 -20 -20 -4 6 8 -1 -8 23 12
8 -20 -20 20 22 -20 -20 -20 -20 -20 -20 -20 -20 -20 -20 -20 -20 -20 -20 -20 -20 -20 -20 -20 -20 -20 -20 11 14 12 -13 -20 -14 6 22 9 24 16 19 27 36 19 15
-20 -20 8 -10 22 30 -20 -20 -20 -20 -20 -20 -20 -20 -20 -20 -20 -20 -20 -19 -20 -20 -20 13 5 10 -20 15 14 10 6 17 9 -2 -9 22 24 34 25 38 42 15 24
-20 -20 -12 -5 2 4 12 -20 -20 -20 -20 -20 -20 -20 -20 -20 -20 -20 -20 -16 -8 15 8 9 8 2 11 18 17 20 8 -13 -16 8 18 18 22 28 35 38 27 31 10
-20 -20 -20 -20 -20 -4 9 45 33 1 -20 -20 -20 -20 -20 -20 -20 -20 15 19 20 16 17 17 15 14 14 20 13 9 -3 16 27 22 23 19 25 32 24 15 -15 -20 -20
-20 -20 -15 -18 -20 -20 -18 14 11 32 -15 -20 -13 -20 -20 -20 -20 4 13 1 14 18 11 17 20 33 16 24 20 19 17 18 27 20 26 33 8 -2 4 -16 -20 -20 -20
-20 -20 -20 -2 -0 25 -10 8 2 -9 -16 14 6 -5 -17 -20 9 16 -3 2 15 19 16 17 12 9 24 26 26 24 9 -6 13 21 17 -20 -18 -20 -20 -20 -20 -20 -20
-20 -20 -20 -20 -20 -8 21 23 22 -8 21 -2 26 30 4 5 12 6 13 4 7 7 7 14 19 22 15 20 17 19 18 16 -9 -20 -20 -20 -7 -20 -20 -20 -20 -20 -20
-20 -20 -20 -20 -20 -20 -20 16 14 21 24 23 25 21 20 21 17 16 17 3 6 19 13 18 32 8 12 19 19 7 -7 9 21 7 -20 -20 -20 -20 -20 -20 -20 -20 -20
-20 -19 -2 7 -6 -19 -20 -20 -20 -20 -20 6 6 5 12 -7 -2 15 31 23 19 20 26 24 22 12 12 5 -1 9 8 8 17 12 -17 -20 -20 -20 -20 -20 -20 -20 -20
-11 7 9 12 3 4 -7 2 9 9 1 4 6 -1 5 12 19 22 30 25 31 24 22 25 17 5 5 14 15 18 14 8 -0 -20 -20 -20 -20 -20 -20 -20 -20 -20 -20
8 13 10 7 14 10 10 3 -3 22 19 18 20 19 26 23 24 11 20 22 23 24 25 26 23 23 20 13 12 7 7 8 -17 -15 -14 -12 -20 -20 -20 -20 -20 -20 -20

GFSMW_prec_radar_108.txt.gz
Reflectivity
-20 -20 -20 -20 -20 -20 -20 -20 -20 -20 -20 -20 12 13 -20 -20 10 18 18 35 33 23 14 -20 -20 -20 -20 -20 -20 -20 -20 -20 -20 -20 -20 10 14 -1 -20 -15 -20 -20 -20
-20 -20 -20 -20 -20 -20 -20 -20 -20 -20 -20 -20 -20 -20 5 -14 -15 -15 9 12 28 22 -20 -20 -20 -20 -20 -8 -20 -20 -20 -20 -17 -8 -20 -20 -20 -2 2 -19 4 -20 -20
-20 -20 -20 -20 -20 -20 -20 -20 -20 -20 -20 -20 -20 -20 -20 22 6 10 7 9 8 -1 -20 11 1 -12 -20 -20 -20 -20 -20 -20 -13 -12 -20 -20 -20 -20 -15 5 9 -20 -20
-20 -20 -20 -20 -20 -20 -20 -20 -20 -20 -20 -20 -20 -20 -20 -12 16 -5 -20 16 -6 -20 -20 -10 18 19 -10 -20 -11 -20 -20 -20 -20 -14 -20 -20 -19 -12 6 1 -20 -20 -20
-20 -20 -20 -20 -20 -20 -20 -20 -20 -20 -18 -20 -20 -20 -20 -20 -20 9 24 26 24 16 11 16 11 29 22 -3 3 -9 -7 -20 13 -19 -12 -18 13 9 -13 -11 -20 -20 -20
-20 -20 -20 -20 -20 -20 -20 -20 -20 -20 -20 -20 -16 -15 -20 -20 -9 2 -12 30 35 28 25 16 1 24 12 5 -0 9 -8 25 23 -0 7 23 20 6 13 -19 -20 -20 -20
-20 -20 -20 -20 -20 -20 -20 -20 -20 -20 -20 -20 -20 -11 -20 -20 -20 -13 18 5 39 33 32 28 26 24 28 28 33 30 35 33 34 32 24 26 24 10 24 -18 -18 -20 -20
-20 -20 -20 -20 -20 -20 -20 -20 -20 -20 -20 -20 -10 -20 -20 -20 -19 -20 16 25 31 34 34 32 26 17 29 30 33 35 34 33 32 29 22 26 17 -18 -19 -6 2 -9 -16
-20 -20 -20 -20 -20 -20 -20 -20 -20 -20 -20 -16 8 -20 -20 -20 -20 -20 10 22 32 34 35 23 31 27 28 28 35 33 32 32 31 30 29 19 0 -18 19 16 19 28 -7
-20 -20 5 1 -20 -20 -20 -20 -20 -20 -20 -20 12 -7 -20 -20 -20 -20 -20 6 22 30 30 33 34 34 37 31 29 27 30 30 23 20 18 13 5 23 22 16 12 11 9
-20 2 18 -1 -20 -20 -20 -20 -20 -20 -20 -20 -4 9 -20 -20 -20 -20 -20 -20 -12 22 31 27 36 30 33 36 30 27 22 16 20 15 13 10 16 17 6 7 9 -9 7
-19 -13 9 -9 -20 -20 -20 -20 -20 -20 -20 -20 -20 -3 -20 -20 -20 -20 -20 -20 -20 -20 -19 -5 30 32 23 -9 -19 -19 -13 5 8 -11 1 -18 -3 6 3 11 -16 11 10
-20 -20 4 1 -20 -20 -20 -20 -20 -20 -20 -20 -20 -5 -19 -20 -20 -20 -20 -20 -20 -20 -20 -20 -20 -6 -12 -20 -20 -20 -20 9 -2 -17 -20 -17 -20 -20 -14 -20 -16 9 18
-2 -20 12 18 24 30 -20 -20 -20 -20 -20 -20 -20 -20 -20 -20 -20 -20 -20 -20 -20 -20 -20 -20 -20 -20 -20 -20 -20 -20 -20 -20 -20 -20 -20 -20 -20 -20 -20 -20 -7 14 12
18 -20 30 29 25 24 22 17 -20 -20 -20 -20 -20 -20 -20 -20 -20 -20 -20 -20 -20 -20 -20 -20 -20 -20 -20 -20 -20 -20 -20 -20 -19 -20 -20 -20 -20 -20 -3 -8 -20 -10 -5
25 -7 8 36 12 25 25 24 26 -20 -20 -20 -20 -20 -20 -20 -20 -20 -20 -20 -20 -20 -20 -20 -20 -20 -20 6 1 2 -17 -2 1 -20 -20 -20 -0 9 30 33 25 14 1
25 11 7 2 -4 8 21 25 27 20 -17 -20 -20 -20 -20 -20 -20 -20 -20 -20 -20 -20 -20 -20 -14 -20 -19 12 11 12 6 17 17 21 -11 9 28 28 15 24 27 30 32
23 9 13 1 -20 11 0 18 22 27 -2 7 -20 -20 -20 -20 -20 -20 -20 -20 -20 -20 -15 5 9 6 9 15 14 15 5 -8 -6 19 31 18 9 17 29 28 22 30 24
13 11 4 -20 -19 -20 -9 13 8 28 25 19 27 -3 -20 -20 -20 -20 -20 -20 10 16 4 9 -3 -5 -2 15 6 3 4 25 21 17 13 16 25 29 21 21 27 21 -18
-0 6 -16 -20 -20 -19 -20 6 -1 24 28 27 26 13 -18 -20 -20 -20 -20 -20 -10 -19 -18 -3 -9 12 13 25 16 11 -7 -11 6 18 18 25 24 24 18 17 10 -20 -20
-20 -20 -20 -20 -20 -20 -17 3 4 -9 22 20 21 22 12 -7 -16 -20 -1 17 21 10 17 19 11 10 8 16 21 23 9 -1 8 18 27 25 14 16 18 1 -10 -20 -20
-20 -20 -20 -20 -20 -20 1 -20 5 10 20 24 21 25 26 25 7 -1 -1 -0 4 12 12 11 10 8 7 25 23 21 30 30 4 10 14 21 18 14 6 -4 -0 -1 -20
-20 -20 -20 -20 -20 -20 -20 -20 19 23 23 25 23 28 29 25 24 25 28 13 1 27 24 17 16 6 16 22 25 32 33 20 12 18 18 18 2 -19 -1 5 6 -11 -15
-20 -20 -20 -20 -20 -20 -17 -20 -20 -9 -16 9 8 15 17 18 23 21 22 15 11 10 6 12 21 21 17 19 22 20 15 19 14 6 -9 -19 -2 8 9 2 -0 -5 -20
-20 -20 -20 -20 -20 -19 7 -5 -3 5 -1 12 -10 -6 6 6 2 16 20 18 23 25 31 29 36 28 28 29 28 22 23 22 20 12 6 9 9 9 9 1 -20 -20 -20
-20 -14 6 -0 -19 -16 -15 5 16 7 9 15 18 16 18 11 17 23 22 24 24 29 28 34 38 32 29 28 19 14 10 11 13 11 12 12 13 -3 -20 -20 -20 -20 -20

GFSMW_prec_radar_111.txt.gz
Reflectivity
-20 -20 -20 -20 -20 -20 -20 -20 -20 -20 -20 -14 15 -4 -20 1 -10 23 16 19 26 23 22 6 -20 -20 -20 -20 -20 -20 -20 -20 -20 -20 -8 -20 -20 -20 -20 -20 -20 -20 -20
-20 -20 -20 -20 -20 -20 -20 -20 -20 -20 -20 -20 -20 -20 -20 -2 -20 11 21 27 23 30 28 14 -20 -20 -20 -20 -20 -20 -20 -20 -20 -2 -20 -20 -20 -16 11 -6 -20 -18 -17
-20 -20 -20 -20 -20 -20 -20 -20 -20 -20 -20 -20 -20 -20 -20 -10 12 -3 24 25 30 27 26 17 -20 -20 -20 -20 -20 -20 -20 -20 -20 -20 -3 -9 -17 -2 -20 -20 3 -7 1
-20 -20 -20 -20 -20 -20 -20 -20 -20 -20 -20 -20 -20 -20 -10 -20 -19 20 -16 16 10 28 29 27 -18 -20 -20 -20 -20 -19 -18 -14 -20 -20 -20 -8 4 -4 1 1 -4 -20 -15
-20 -20 -20 -20 -20 -20 -20 -20 -20 -20 -20 -20 -20 -20 -20 -11 -20 -19 17 4 5 12 25 17 13 3 -20 -20 -14 -11 -20 -20 -20 -20 -20 -4 3 0 8 23 11 -8 -4
-20 -20 -20 -20 -20 -20 -20 -20 -20 -20 -20 -14 -20 -20 -20 -20 -20 -9 4 3 7 16 -0 22 25 20 17 16 8 -15 11 -20 -7 -20 -20 -20 -5 -16 5 -14 6 -14 18
-15 -20 -20 -20 -20 -20 -20 -20 -20 -20 -4 4 -13 -20 -20 -20 -20 -20 -3 15 19 24 1 19 16 15 7 29 26 24 24 -20 9 14 6 -10 4 12 19 3 -7 1 13
11 3 -20 -20 -20 -20 -20 -20 -20 -20 -2 2 2 -20 -20 -20 -20 -20 -20 -20 4 23 39 16 20 20 14 2 24 30 16 26 28 31 29 26 25 28 21 19 24 22 -20
9 -17 -20 -19 -20 -20 -20 -20 -20 -20 -20 -20 -20 6 -20 -20 -15 -18 -20 -14 24 28 30 31 32 27 31 28 33 33 29 31 34 35 36 35 35 30 20 23 4 -8 13
-20 -20 6 -17 -19 -20 -20 -20 -20 -20 -20 -14 -20 -20 -20 -20 -20 -20 -17 10 13 20 17 28 31 24 33 32 38 36 36 36 33 34 36 32 31 28 21 22 29 25 27
-20 -20 -14 -20 -20 -20 29 -20 -20 -20 -20 -20 -20 -20 -20 5 -20 -20 -20 9 14 12 24 32 31 34 31 28 37 35 33 30 35 34 31 24 22 18 24 22 21 24 21
9 -6 -20 -20 -20 23 30 -20 -20 -20 -20 -20 -20 -20 -20 8 -20 -20 -20 -20 -17 6 23 31 33 31 29 36 30 34 36 35 33 36 27 23 22 20 19 24 7 2 -14
-20 -1 -20 -20 -3 23 22 -20 -20 -20 -20 -20 -20 -20 -20 -20 -20 -20 -20 -20 -20 -20 2 9 19 30 27 31 35 32 19 -4 10 11 13 13 12 19 5 9 -7 -20 -20
-20 -3 -20 -20 0 16 9 -20 -20 -20 -20 -20 -20 -15 -20 -20 -20 -20 -20 -20 -20 -20 -17 -7 7 23 17 30 29 -5 -12 -2 -6 4 10 -14 -13 -9 -12 -20 -20 -20 -20
33 7 -20 -12 15 7 10 14 -20 -20 -20 -20 -20 5 -6 -20 -20 -20 -20 -20 -20 -20 -20 -20 -20 -19 -10 -2 -10 -17 -20 -20 -20 -19 -20 -20 -20 -20 3 8 -15 6 18
31 28 17 -19 15 17 24 1 16 -20 -20 -20 -12 -20 -6 -20 -20 -20 -20 -20 -20 -20 -20 -20 -20 -20 -20 -20 -20 -20 -20 -20 -20 -20 -12 -17 14 11 3 3 5 7 -10
29 32 13 3 12 21 14 14 1 9 -20 -20 -20 -20 -20 -20 -20 -20 -20 -20 -20 -20 -20 -16 -5 -20 -20 -19 3 5 -20 -20 -19 -16 10 17 9 11 -4 9 14 30 32
25 23 8 16 32 36 27 32 25 11 25 6 -20 -20 -20 -20 -20 -20 -20 -20 -18 8 -20 -8 12 -19 -6 8 9 10 -12 3 9 17 1 13 5 -1 12 20 3 1 15
11 15 15 11 27 16 30 29 22 26 21 21 3 -12 -20 -20 -20 -20 -20 -20 -20 -19 -18 -20 -20 -20 -9 15 1 -7 -14 5 6 23 13 -8 10 33 26 22 6 8 13
2 7 11 -0 3 15 26 -14 -17 -16 19 25 32 20 -18 -19 -20 -20 -20 -16 5 -3 -19 -4 7 22 15 21 21 16 6 7 5 5 17 24 27 26 10 5 6 7 -9
-20 -13 2 -3 -16 -20 -20 31 28 23 -2 -11 14 31 23 15 -12 -20 -17 -5 7 6 3 18 16 14 9 12 21 23 7 10 13 15 17 25 25 12 12 4 10 4 -12
-20 -20 -16 -20 -20 -17 -20 -20 27 26 15 -15 -10 19 30 27 15 2 -20 -20 -7 -14 -12 -12 -5 4 9 27 27 26 18 22 16 23 27 30 32 32 20 7 8 -5 -0
-20 -20 -20 -20 -20 -20 -19 16 -9 24 20 6 7 32 32 34 24 27 19 24 -2 6 7 3 8 7 14 21 21 26 21 20 12 19 26 30 30 18 16 19 19 18 14
-20 -20 -20 -20 -20 -2 1 -20 -20 -20 9 4 6 25 18 13 9 14 30 35 37 24 36 41 31 34 19 18 20 25 20 28 24 16 19 21 22 20 13 10 8 9 -0
-20 -20 -20 -5 -1 -14 -10 -19 -1 4 -17 -17 -16 -6 -4 5 -14 -18 -14 -13 -6 8 12 15 19 26 23 24 27 27 25 25 25 26 26 25 25 20 17 13 3 -18 -20
-20 -8 5 -0 9 11 15 12 -6 7 21 14 2 14 13 4 10 10 20 25 27 23 25 35 38 38 28 32 27 23 21 19 16 15 15 13 11 9 7 -9 -20 -20 -20

GFSMW_prec_radar_114.txt.gz
Reflectivity
-20 -20 -20 -20 -20 -20 -20 -20 -20 -20 -20 -20 -20 -20 -20 -20 3 -20 -20 -17 24 24 39 23 28 8 -7 -20 -20 -20 -20 -20 -20 -20 -20 -20 -20 -20 -20 -20 -20 -20 -6
-20 -20 -20 -20 -20 -20 -20 -20 -20 -20 -20 -20 -3 -19 6 2 -20 -20 6 -5 25 26 28 22 27 5 4 -20 -20 -20 -20 -20 -20 -20 -20 -20 -20 -17 -20 -20 -20 -20 -20
-20 -20 -20 -20 -20 -20 -20 -20 -20 -20 -20 -20 -10 -4 1 -20 -17 -9 1 6 33 33 24 26 10 15 4 1 -20 -20 -17 -19 -20 -20 -20 -18 5 11 -20 -20 -20 9 2
-20 -20 -20 -20 -20 -20 -11 -20 -20 -20 -20 -20 -20 -20 -20 -20 -20 -20 7 -11 24 34 27 26 9 1 3 -20 -20 -20 -20 -20 -20 -20 -18 -18 -19 -8 -20 -20 -18 -16 16
-20 -20 -20 -20 -20 -20 -20 -20 -20 -20 -20 -20 -20 -20 -20 -20 -20 -20 -1 8 4 20 32 27 12 10 -7 -20 -20 -20 -20 -20 -20 -20 -20 -20 -20 -13 -20 -20 -19 -19 -16
-20 -20 -20 -20 -20 -20 -20 -20 -20 -20 -20 -20 -20 -20 -20 -20 -18 -12 -14 19 7 1 22 32 26 25 2 -6 -20 -20 -20 -20 -20 -20 -18 -20 -20 -20 -20 -14 21 -14 6
-20 -20 -20 -20 -20 -20 -20 -20 -20 -20 -20 -20 -20 -20 -20 -20 -18 -14 -20 -17 8 21 -4 7 17 17 3 -20 -20 -20 -20 -20 -20 -20 -20 -20 -13 -6 11 16 14 -2 14
-20 -20 -20 -20 -20 -13 -20 -20 -20 -20 -20 -20 -20 -20 -20 -20 -20 -20 -20 -20 -6 -12 5 7 6 24 22 -12 16 -19 -3 -15 -20 -20 -20 3 11 23 24 3 -5 5 20
-20 -20 -20 -20 -20 -20 -20 -20 -20 -20 -20 -20 -20 -20 -20 -20 -20 -20 -20 -20 -20 -9 9 14 22 19 16 14 21 26 22 25 24 26 25 24 21 22 25 16 17 18 20
-20 -20 -20 -20 7 -20 -20 -20 -20 -5 27 -20 -20 -13 -16 -11 -20 -20 -20 -20 -20 -20 -3 31 30 38 33 3 21 24 12 25 30 35 36 36 34 34 32 33 30 26 15
-20 -20 -20 -20 -13 -20 -20 -20 -20 -15 -2 -20 -20 4 12 11 -20 -20 -20 -20 -20 -20 -5 30 30 32 27 19 28 35 27 31 25 33 34 34 33 33 33 31 27 21 23
-20 -20 -20 -20 -20 -20 -20 -20 -20 -6 22 -20 -13 12 12 3 -12 -20 -20 -13 14 -18 -12 25 31 29 26 36 29 30 34 37 33 31 26 30 37 31 23 24 19 20 19
-20 -20 -20 -12 -20 12 -18 -20 -20 10 7 -20 -17 16 16 9 7 -20 -20 -19 -13 10 -15 11 25 31 32 28 32 33 39 38 33 32 32 29 30 20 14 19 19 19 18
-2 12 21 13 -7 18 17 32 14 10 1 -20 -20 5 11 11 10 -1 -20 -20 -20 6 13 15 -4 19 32 33 31 39 36 26 29 22 5 17 15 16 14 8 -4 -11 -20
12 34 31 22 -0 -3 24 30 21 21 -20 -20 -20 9 9 10 13 11 8 6 -15 -19 -10 5 15 16 18 28 27 34 24 32 24 6 24 11 -10 0 -8 -15 -20 -19 -20
10 31 36 19 13 -20 10 26 19 28 -20 -20 -20 -20 1 7 12 11 9 9 2 -15 -20 -12 -8 17 19 28 29 34 21 21 10 -3 -20 -20 -20 7 7 -20 2 7 10
16 22 36 20 21 8 22 14 20 14 -20 -20 -20 -20 -7 7 9 15 17 22 13 11 15 -5 -8 0 15 24 25 24 18 -10 -19 -20 -20 -20 -20 -1 -20 -2 1 6 12
15 13 25 7 26 28 27 37 10 13 5 -12 -20 -16 3 -16 12 14 15 -5 14 15 11 11 16 18 -0 18 8 3 -18 -16 -13 3 2 -19 -12 11 17 -6 7 4 -1
7 3 14 -4 8 33 35 33 13 15 -16 10 -14 -20 -20 -20 6 12 12 -2 12 21 0 14 12 4 -15 17 15 9 9 9 5 9 10 14 10 21 14 3 -14 5 13
0 3 14 21 18 23 22 34 35 9 24 23 12 -20 -8 -20 -20 -12 5 13 -9 13 17 19 5 22 2 14 19 18 9 15 8 5 10 17 17 18 11 -3 -3 15 17
-11 -10 6 13 18 16 5 19 32 30 38 23 28 19 -5 -20 -20 -20 -6 5 5 12 14 3 -5 -15 -7 6 16 23 5 2 -11 -1 1 10 15 15 16 14 -3 11 20
-20 -20 -18 -20 -6 6 -8 13 26 40 38 20 5 23 23 7 -2 -20 -17 -0 5 5 4 6 9 8 12 28 27 18 19 20 12 15 18 21 21 15 14 19 22 24 24
-20 -20 -20 -20 -20 -4 -2 10 15 24 22 34 35 16 -6 5 22 20 24 14 1 1 0 1 0 1 -2 6 17 18 20 21 17 17 21 22 22 21 21 20 18 16 16
-20 -20 -20 -19 -20 -16 -11 7 12 17 10 15 33 14 35 21 34 35 33 33 28 36 21 24 19 30 13 30 19 22 28 27 24 23 18 21 24 24 24 25 22 18 18
-20 -20 -19 -6 -10 -1 2 1 9 1 12 21 4 26 31 4 13 26 21 11 2 13 12 -2 9 14 16 16 22 27 27 18 21 26 25 22 21 18 14 14 9 -1 -0
-20 -20 -8 3 -2 -4 -9 -7 -2 11 10 22 19 26 -6 -17 -4 14 14 22 24 21 21 20 15 20 20 17 21 27 34 28 26 22 10 7 1 -6 -17 -20 -19 -20 -20